Burlington, IA

8:53 AM CST on January 22, 2018 (GMT -0600)
Burlington Regional

Weather History for KBRL - December, 2012

Change the Weather History Date:

Wednesday, December 19, 2012

  Actual Average Record
Temperature  
Mean Temperature 36 °F 28 °F  
Max Temperature 39 °F 36 °F 59 °F (1988)
Min Temperature 33 °F 20 °F -18 °F (1983)
Degree Days  
Heating Degree Days 29 37  
Month to date heating degree days 458 653  
Since 1 July heating degree days 1697 1726  
Cooling Degree Days 0 0  
Month to date cooling degree days 0 0  
Year to date cooling degree days 1287 1207  
Moisture  
Dew Point 33 °F    
Average Humidity 86    
Maximum Humidity 89    
Minimum Humidity 82    
Precipitation  
Precipitation 0.61 in 0.07 in 1.09 in (1987)
Month to date precipitation 1.43 1.38  
Year to date precipitation 23.82 37.77  
Sea Level Pressure  
Sea Level Pressure 29.82 in    
Wind  
Wind Speed 9 mph (ENE)    
Max Wind Speed 22 mph    
Max Gust Speed 28 mph    
Visibility 5 miles    
Events Rain , Thunderstorm    
T = Trace of Precipitation, MM = Missing Value Source: NWS Daily Summary

Daily Weather History Graph

Daily Weather History Graph

Search for Another Location

Airport or City:

Trip Planner

Search our weather history database for the weather conditions in past years. The results will help you decide how hot, cold, wet, or windy it might be!

Date:

Astronomy

Dec. 19, 2012 Rise Set
Actual Time 7:24 AM CST 4:39 PM CST
Civil Twilight 6:53 AM CST 5:10 PM CST
Nautical Twilight 6:18 AM CST 5:44 PM CST
Astronomical Twilight 5:45 AM CST 6:18 PM CST
Moon 11:31 AM CST (12/19) No Moon Set
Length of Visible Light 10h 17m
Length of Day
9h 14m
Waxing Crescent, 45% of the Moon is Illuminated
Dec 19
Waxing Crescent
Dec 19
First Quarter
Dec 28
Full
Jan 4
Last Quarter
Jan 11
New

Hourly Weather History & Observations

Time (CST) Temp. Windchill Dew Point Humidity Pressure Visibility Wind Dir Wind Speed Gust Speed Precip Events Conditions
12:53 AM 34.0 °F 29.8 °F 30.0 °F 85% 29.91 in 8.0 mi North 4.6 mph - N/A   Overcast
1:53 AM 34.0 °F 28.8 °F 30.0 °F 85% 29.94 in 8.0 mi North 5.8 mph - N/A   Overcast
2:53 AM 34.0 °F - 30.0 °F 85% 29.96 in 7.0 mi Calm Calm - N/A   Overcast
3:53 AM 34.0 °F - 30.0 °F 85% 29.98 in 7.0 mi Calm Calm - N/A   Overcast
4:53 AM 34.0 °F - 30.0 °F 85% 29.99 in 7.0 mi Calm Calm - N/A   Overcast
5:53 AM 34.0 °F 31.0 °F 30.0 °F 85% 30.00 in 8.0 mi ENE 3.5 mph - N/A   Overcast
6:53 AM 34.0 °F 28.8 °F 30.0 °F 85% 30.00 in 7.0 mi East 5.8 mph - N/A   Overcast
7:46 AM 33.8 °F 28.6 °F 30.2 °F 87% 29.99 in 5.0 mi East 5.8 mph - N/A   Overcast
7:53 AM 33.1 °F 26.9 °F 30.0 °F 89% 30.00 in 4.0 mi ENE 6.9 mph - N/A   Overcast
8:53 AM 34.0 °F 28.0 °F 30.9 °F 89% 30.02 in 4.0 mi East 6.9 mph - N/A   Overcast
9:31 AM 33.8 °F 27.0 °F 30.2 °F 87% 30.00 in 5.0 mi ESE 8.1 mph - N/A   Overcast
9:53 AM 35.1 °F 29.3 °F 30.9 °F 85% 30.02 in 6.0 mi East 6.9 mph - N/A   Overcast
10:53 AM 36.0 °F 29.6 °F 32.0 °F 86% 30.02 in 6.0 mi ESE 8.1 mph - N/A   Overcast
11:38 AM 37.4 °F 31.4 °F 32.0 °F 81% 29.97 in 6.0 mi East 8.1 mph - N/A   Haze
11:53 AM 37.0 °F 30.4 °F 32.0 °F 82% 29.99 in 7.0 mi ESE 9.2 mph - N/A   Overcast
12:53 PM 37.9 °F 31.5 °F 32.0 °F 79% 29.96 in 7.0 mi East 9.2 mph - N/A   Mostly Cloudy
1:53 PM 37.9 °F 34.4 °F 33.1 °F 83% 29.96 in 7.0 mi East 4.6 mph - N/A   Overcast
2:53 PM 37.9 °F 31.5 °F 33.1 °F 83% 29.93 in 7.0 mi East 9.2 mph - N/A   Overcast
3:53 PM 37.9 °F 30.5 °F 33.1 °F 83% 29.89 in 7.0 mi ENE 11.5 mph - 0.00 in   Overcast
4:53 PM 37.9 °F 28.9 °F 33.1 °F 83% 29.87 in 8.0 mi ENE 16.1 mph 21.9 mph N/A   Overcast
5:53 PM 37.0 °F 27.7 °F 33.1 °F 86% 29.86 in 7.0 mi ENE 16.1 mph 23.0 mph N/A   Overcast
6:32 PM 37.4 °F 28.2 °F 33.8 °F 87% 29.83 in 7.0 mi East 16.1 mph 21.9 mph N/A   Mostly Cloudy
6:53 PM 37.0 °F 28.1 °F 34.0 °F 89% 29.82 in 6.0 mi East 15.0 mph 21.9 mph N/A   Overcast
7:53 PM 37.0 °F 28.1 °F 35.1 °F 93% 29.78 in 5.0 mi East 15.0 mph 25.3 mph 0.01 in Rain Light Rain
8:00 PM 37.4 °F 29.3 °F 35.6 °F 93% 29.76 in 5.0 mi East 12.7 mph - 0.00 in Rain Light Rain
8:16 PM 37.4 °F 28.5 °F 35.6 °F 93% 29.77 in 3.0 mi ENE 15.0 mph - 0.03 in Rain , Thunderstorm Light Rain
8:26 PM 37.4 °F 30.8 °F 35.6 °F 93% 29.77 in 2.0 mi ENE 9.2 mph 21.9 mph 0.09 in Rain , Thunderstorm Heavy Thunderstorms and Rain
8:28 PM 37.4 °F 29.3 °F 35.6 °F 93% 29.77 in 2.0 mi ENE 12.7 mph 19.6 mph 0.10 in Rain , Thunderstorm Thunderstorms and Rain
8:45 PM 37.4 °F 29.3 °F 35.6 °F 93% 29.76 in 1.5 mi ENE 12.7 mph - 0.26 in Rain , Thunderstorm Heavy Thunderstorms and Rain
8:53 PM 37.0 °F 28.9 °F 36.0 °F 96% 29.75 in 2.0 mi ENE 12.7 mph - 0.29 in Rain , Thunderstorm Thunderstorms and Rain
9:01 PM 37.4 °F 28.9 °F 35.6 °F 93% 29.73 in 2.0 mi ENE 13.8 mph - 0.03 in Rain , Thunderstorm Thunderstorms and Rain
9:06 PM 37.4 °F 28.2 °F 35.6 °F 93% 29.72 in 2.0 mi ENE 16.1 mph - 0.07 in Rain Heavy Rain
9:38 PM 37.4 °F 28.2 °F 35.6 °F 93% 29.68 in 2.0 mi ENE 16.1 mph 24.2 mph 0.12 in Rain Light Rain
9:53 PM 37.0 °F 27.4 °F 36.0 °F 96% 29.68 in 2.0 mi ENE 17.3 mph 23.0 mph 0.12 in Rain Light Rain
10:23 PM 37.4 °F 27.8 °F - N/A% 29.62 in 3.0 mi East 17.3 mph 26.5 mph 0.01 in Rain Light Rain
10:33 PM 37.4 °F 26.9 °F - N/A% 29.59 in 2.5 mi ENE 20.7 mph 27.6 mph 0.02 in Rain , Thunderstorm Light Rain
10:48 PM 37.4 °F 28.5 °F - N/A% 29.59 in 3.0 mi East 15.0 mph 26.5 mph 0.05 in Rain Light Rain
10:53 PM 37.9 °F 29.2 °F - N/A% 29.61 in 3.0 mi East 15.0 mph 25.3 mph 0.05 in Rain Light Rain
11:32 PM 37.4 °F 30.3 °F - N/A% 29.63 in 3.0 mi North 10.4 mph - 0.04 in Rain , Thunderstorm Light Rain
11:39 PM 37.4 °F 30.3 °F - N/A% 29.62 in 2.0 mi North 10.4 mph - 0.09 in Rain , Thunderstorm Heavy Rain
11:48 PM 37.4 °F 29.3 °F - N/A% 29.58 in 2.0 mi ENE 12.7 mph - 0.12 in Rain , Thunderstorm Rain
11:53 PM 37.9 °F 28.5 °F - N/A% 29.57 in 2.5 mi NE 17.3 mph 23.0 mph 0.13 in Rain , Thunderstorm Rain
11:55 PM 37.4 °F 28.2 °F - N/A% 29.56 in 3.0 mi NE 16.1 mph 23.0 mph 0.00 in Rain , Thunderstorm Light Rain